Location: Haliburton Scout Reserve
(45.0900°N, 78.3200°W)
Time: 04:18:43
(UTC-04:00)

PCSat - Pass Details

Date: 24 May 2022
Orbit: 784 x 795 km, 67.1° (Epoch: 24 June)

Event Time Altitude Azimuth Distance (km) Brightness Sun altitude
Rises 02:48:15 0° 330° (NNW) 3,305 13.3 -20.4°
Reaches altitude 10° 02:50:45 10° 336° (NNW) 2,372 12.6 -20.3°
Maximum altitude 02:56:05 53° 53° (NE) 972 10.3 -19.8°
Drops below altitude 10° 03:01:22 10° 130° (SE) 2,356 11.9 -19.4°
Sets 03:03:50 0° 135° (SE) 3,281 12.6 -19.2°
